Tracking 31027 objects as of 19-Jul-2025
HD Live streaming from Space Station
objects crossing your sky now

SL-8 DEB

Track SL-8 DEB now!
10-day predictions


NORAD ID: 43117
Int'l Code: 2018-004G
Perigee: 758.6 km
Apogee: 785.8 km
Inclination: 74.0 °
Period: 100.1 minutes
Semi major axis: 7143 km
RCS: Unknown
Launch date: January 12, 2018
Source: Commonwealth of Independent States (former USSR) (CIS)
Launch site: SRIHARIKOTA (SRI)

Note: This is SATELLITE DEBRIS
Your satellite tracking list
STARLINK-31879
Track 1 satellite(s)




NASA's NSSDC Master Catalog

Two Line Element Set (TLE):
1 43117U 88053E   25198.33048344  .00000136  00000-0  53612-4 0  9995
2 43117  74.0493 199.9642 0019054  74.8771 285.4489 14.38011964395226
Source of the keplerian elements: AFSPC